[[{"header":{"parameterUnit":"m.s-1","parameterCategory":1,"la1":30.2991,"la2":30.254,"lo1":-89.0895,"lo2":-89.0444,"dy":0.0017,"dx":0.0017,"nx":28,"ny":28,"refTime":"2023-09-16T03:00:00:Z","depth":0,"parameterNumber":2,"parameterNumberName":"U-component_of_WINDS"},"data":[0,0,0,0,0,0,0,0,0,0,0,0,0,0,0,0,0,0,0,0,0,0,0,0,0,0,0,0,0,0,0,0,0,0,0,0,0,0,0,0,0,0,0,0,0,0,0,0,0,0,0,0,0,0,0,0,0,0,1.722,1.722,0,1.7219,1.7219,1.7219,1.7172,1.717,1.7169,1.7168,1.7167,1.7168,1.7169,0,0,0,0,0,0,0,0,0,0,0,0,0,1.7183,1.7183,1.722,1.722,1.722,1.7219,1.7219,1.7219,1.7172,1.717,1.7169,1.7167,1.7166,1.7168,1.7169,0,0,0,0,0,0,0,0,0,0,0,0,0,1.7192,1.7184,1.722,1.7196,1.7194,1.7219,1.7219,1.7219,1.7172,1.717,1.7168,1.7167,1.7166,1.7168,1.7169,1.7216,0,0,1.7174,1.7175,0,0,0,0,0,0,0,0,1.7191,1.7193,1.72,1.7198,1.7196,1.7193,1.7205,1.7218,1.7173,1.718,1.7168,1.7166,1.7177,1.7178,1.7182,1.7216,1.7216,1.7174,1.7176,1.7176,1.7177,0,0,0,0,0,0,0,1.7191,1.7193,1.7219,1.72,1.7197,1.7186,1.7185,1.7207,1.7189,1.718,1.7176,1.7177,1.7176,1.718,1.7181,1.7216,1.7174,1.7176,1.7177,1.7178,1.7293,1.7295,0,0,0,0,0,0,1.7193,1.7193,1.7219,1.7219,1.7189,1.7188,1.7188,1.7196,1.7189,1.7186,1.7178,1.7174,1.7178,1.7179,1.7181,1.7237,1.7176,1.7178,1.7179,1.7291,1.7293,1.7295,0,0,0,0,0,0,1.7193,1.7196,1.7219,1.7205,1.7207,1.7191,1.7201,1.7197,1.7201,1.7188,1.7184,1.7186,1.7177,1.7179,1.7209,1.7236,1.7179,1.718,1.7288,1.7291,1.7294,1.7349,0,0,0,0,0,0,1.7192,1.7196,1.7213,1.7206,1.7208,1.7247,1.7202,1.7198,1.7204,1.7199,1.7194,1.7192,1.7175,1.7206,1.721,1.7238,1.7181,1.7286,1.729,1.7293,1.7345,1.7354,1.7362,0,0,0,0,0,1.7191,1.7228,1.7214,1.7218,1.7229,1.7248,1.725,1.723,1.7207,1.7224,1.7216,1.7192,1.7233,1.721,1.7214,1.7242,1.7284,1.7288,1.7293,1.7341,1.7352,1.7361,0,0,0,0,0,0,1.7238,1.7227,1.7211,1.7247,1.7249,1.724,1.7261,1.7242,1.725,1.7245,1.7221,1.7221,1.7255,1.7251,1.7226,1.7289,1.7254,1.726,1.729,1.73,1.7308,1.7308,1.7183,0,0,0,0,0,1.7253,1.7269,1.7258,1.7292,1.7293,1.7278,1.7285,1.7271,1.7271,1.7272,1.7265,1.7267,1.7281,1.729,1.7302,1.7345,1.7344,1.7366,1.7375,1.7382,1.7387,1.7411,1.7421,1.731,1.731,1.731,0,0,1.7284,1.728,1.7291,1.7301,1.7301,1.7319,1.7278,1.7298,1.7312,1.7275,1.7303,1.7299,1.73,1.7337,1.7353,1.7335,1.7417,1.7388,1.7393,1.7394,1.7417,1.7427,1.7437,1.7314,1.7313,1.7312,0,0,1.7349,1.7347,1.7375,1.7376,1.7377,1.7366,1.7374,1.7368,1.7364,1.7392,1.7366,1.7382,1.7405,1.7407,1.7411,1.7481,1.7459,1.7486,1.7529,1.7553,1.7561,1.7569,1.7595,1.7604,1.7491,1.7491,1.7491,0,1.7386,1.7412,1.7392,1.7415,1.7421,1.7389,1.7418,1.742,1.7425,1.743,1.741,1.7441,1.7439,1.7477,1.7494,1.7499,1.7507,1.7485,1.7562,1.7569,1.7576,1.7601,1.761,1.7494,1.7494,1.7493,1.7493,0,1.7459,1.7478,1.7501,1.7507,1.7515,1.7541,1.7526,1.7537,1.7523,1.7515,1.7546,1.7543,1.7554,1.7562,1.7548,1.7599,1.7589,1.7566,1.753,1.759,1.7613,1.7622,1.7499,1.7497,1.7497,1.7496,0,0,1.7551,1.7549,1.7557,1.7561,1.756,1.7575,1.76,1.7612,1.7623,1.7628,1.7649,1.7671,1.7651,1.7656,1.7642,1.7663,1.772,1.7638,1.7638,1.7654,1.7779,1.7796,1.7807,1.7707,1.7708,1.771,1.7779,0,1.7615,1.7658,1.7642,1.7686,1.7704,1.7676,1.7699,1.7702,1.7696,1.7711,1.7704,1.7721,1.7692,1.7696,1.7715,1.7709,1.7745,1.7704,1.7727,1.7728,1.7727,1.7818,1.7836,1.7901,1.7788,1.7789,1.779,0,1.7694,1.7703,1.775,1.7749,1.7756,1.7776,1.7787,1.7802,1.7805,1.78,1.7807,1.7789,1.7815,1.7781,1.7817,1.779,1.7799,1.7798,1.78,1.7801,1.7762,1.7822,1.7922,1.7932,1.7804,1.7802,1.7801,0,1.7758,1.7782,1.7814,1.7817,1.7817,1.7832,1.7833,1.7835,1.7844,1.7854,1.786,1.7872,1.7879,1.789,1.7877,1.7853,1.7916,1.788,1.7913,1.7913,1.7926,1.7926,1.8029,1.7932,1.7932,1.7932,1.7932,0,1.783,1.786,1.7843,1.7862,1.7895,1.7878,1.7911,1.7909,1.7911,1.793,1.7907,1.7926,1.7907,1.7924,1.7914,1.7947,1.795,1.7947,1.7944,1.7949,1.7949,1.7954,1.7949,1.7935,1.7934,1.7934,1.7933,0,1.7906,1.7896,1.7928,1.7926,1.7927,1.7951,1.795,1.7968,1.7962,1.7987,1.7992,1.7982,1.8001,1.799,1.8009,1.8002,1.8045,1.8036,1.8044,1.8041,1.8075,1.8072,1.8184,1.8199,1.8093,1.8094,1.8095,0,1.7952,1.7975,1.7976,1.7988,1.799,1.8009,1.8018,1.8003,1.8014,1.8022,1.804,1.8058,1.8071,1.8103,1.8098,1.8114,1.8105,1.8143,1.8107,1.8112,1.8106,1.8105,1.8108,1.815,1.8151,1.8152,1.8153,0,1.8037,1.8031,1.8046,1.8061,1.8073,1.8083,1.8092,1.8102,1.8087,1.8101,1.8121,1.8132,1.8153,1.8171,1.8185,1.8186,1.8168,1.8165,1.8173,1.8179,1.8183,1.8182,1.8064,1.8162,1.8161,1.8161,1.816,1.816,1.81,1.8119,1.8124,1.8142,1.8147,1.8156,1.8174,1.8171,1.8188,1.8204,1.8194,1.8218,1.8224,1.824,1.8245,1.8264,1.8248,1.826,1.8263,1.8267,1.8272,1.818,1.8266,1.8266,1.8266,1.8265,1.8265,0,1.8183,1.8185,1.8202,1.8216,1.8231,1.8213,1.8222,1.8236,1.8258,1.8265,1.8279,1.8303,1.8322,1.8319,1.8336,1.8352,1.8344,1.8357,1.8356,1.8357,1.8284,1.8275,1.8364,1.8364,1.8364,1.8364,1.8364,1.8363,1.8228,1.8261,1.8257,1.8292,1.8294,1.8318,1.8325,1.8334,1.834,1.8368,1.8384,1.8383,1.8386,1.8404,1.8421,1.842,1.8427,1.8444,1.844,1.8371,1.8362,1.8352,1.8344,1.8445,1.8445,1.8511,1.8511,1.8512]},{"header":{"parameterUnit":"m.s-1","parameterCategory":1,"la1":30.2991,"la2":30.254,"lo1":-89.0895,"lo2":-89.0444,"dy":0.0017,"dx":0.0017,"nx":28,"ny":28,"refTime":"2023-09-16T03:00:00:Z","depth":0,"parameterNumber":3,"parameterNumberName":"V-component_of_WINDS"},"data":[0,0,0,0,0,0,0,0,0,0,0,0,0,0,0,0,0,0,0,0,0,0,0,0,0,0,0,0,0,0,0,0,0,0,0,0,0,0,0,0,0,0,0,0,0,0,0,0,0,0,0,0,0,0,0,0,0,0,-3.6069,-3.6069,0,-3.6076,-3.6076,-3.6076,-3.6038,-3.6037,-3.6036,-3.6035,-3.604,-3.6042,-3.6043,0,0,0,0,0,0,0,0,0,0,0,0,0,-3.6022,-3.6023,-3.6069,-3.6069,-3.6069,-3.6076,-3.6076,-3.6076,-3.6038,-3.6037,-3.6036,-3.6035,-3.604,-3.6041,-3.6043,0,0,0,0,0,0,0,0,0,0,0,0,0,-3.6037,-3.6023,-3.6069,-3.6051,-3.6049,-3.6076,-3.6076,-3.6076,-3.6039,-3.6037,-3.6036,-3.6034,-3.604,-3.6041,-3.6043,-3.6086,0,0,-3.6048,-3.6049,0,0,0,0,0,0,0,0,-3.6036,-3.6039,-3.6054,-3.6052,-3.6051,-3.6055,-3.6061,-3.6079,-3.6039,-3.6043,-3.6035,-3.6033,-3.6046,-3.6047,-3.6052,-3.6086,-3.6087,-3.6048,-3.6049,-3.605,-3.6051,0,0,0,0,0,0,0,-3.6035,-3.6038,-3.6071,-3.6054,-3.6052,-3.6043,-3.6043,-3.6065,-3.6053,-3.6042,-3.604,-3.6041,-3.6045,-3.6051,-3.6052,-3.6087,-3.6048,-3.605,-3.6051,-3.6052,-3.6159,-3.6161,0,0,0,0,0,0,-3.6037,-3.6037,-3.6071,-3.6072,-3.6039,-3.6045,-3.6045,-3.6055,-3.6053,-3.6051,-3.6043,-3.6039,-3.6049,-3.605,-3.6052,-3.6104,-3.605,-3.6052,-3.6053,-3.6157,-3.616,-3.6162,0,0,0,0,0,0,-3.6036,-3.604,-3.6071,-3.6054,-3.6057,-3.6047,-3.6059,-3.6056,-3.6061,-3.6053,-3.6051,-3.605,-3.6047,-3.605,-3.6079,-3.6104,-3.6053,-3.6054,-3.6155,-3.6158,-3.6161,-3.6208,0,0,0,0,0,0,-3.6034,-3.604,-3.6056,-3.6055,-3.6058,-3.6098,-3.606,-3.6057,-3.6065,-3.6061,-3.606,-3.6058,-3.6046,-3.6076,-3.608,-3.6105,-3.6055,-3.6153,-3.6156,-3.616,-3.6204,-3.6212,-3.6218,0,0,0,0,0,-3.6033,-3.6068,-3.6057,-3.6061,-3.6078,-3.6099,-3.6101,-3.6087,-3.6067,-3.6083,-3.6079,-3.6058,-3.61,-3.608,-3.6084,-3.611,-3.6151,-3.6155,-3.6159,-3.6201,-3.621,-3.6218,0,0,0,0,0,0,-3.6071,-3.6067,-3.6055,-3.6091,-3.6096,-3.6093,-3.6113,-3.6097,-3.6107,-3.6103,-3.6085,-3.6085,-3.6118,-3.6116,-3.6093,-3.6153,-3.6122,-3.6127,-3.6152,-3.6161,-3.6168,-3.6168,-3.6057,0,0,0,0,0,-3.6084,-3.6101,-3.6097,-3.6129,-3.6132,-3.6122,-3.6131,-3.612,-3.6124,-3.6125,-3.6123,-3.6127,-3.6141,-3.6151,-3.6164,-3.6204,-3.6204,-3.6224,-3.6231,-3.6237,-3.6242,-3.6264,-3.6274,-3.6175,-3.6175,-3.6175,0,0,-3.6109,-3.611,-3.6122,-3.6136,-3.6139,-3.6158,-3.6124,-3.6145,-3.6159,-3.6128,-3.6156,-3.6155,-3.6158,-3.6194,-3.6209,-3.6193,-3.6269,-3.6242,-3.6247,-3.6248,-3.627,-3.6279,-3.6287,-3.6178,-3.6177,-3.6177,0,0,-3.6167,-3.6168,-3.6196,-3.62,-3.6205,-3.6199,-3.6206,-3.6206,-3.6204,-3.6232,-3.6211,-3.6227,-3.6251,-3.6256,-3.6261,-3.6323,-3.6306,-3.6328,-3.6366,-3.6388,-3.6396,-3.6403,-3.6426,-3.6435,-3.6332,-3.6333,-3.6333,0,-3.6198,-3.6226,-3.6212,-3.6235,-3.6243,-3.6218,-3.6247,-3.6251,-3.626,-3.6266,-3.6249,-3.6281,-3.6281,-3.6318,-3.6334,-3.6339,-3.6347,-3.6328,-3.6396,-3.6403,-3.6409,-3.6431,-3.644,-3.6335,-3.6335,-3.6335,-3.6335,0,-3.6265,-3.6285,-3.6307,-3.6318,-3.6328,-3.6354,-3.6344,-3.6356,-3.6345,-3.6341,-3.6371,-3.6371,-3.6384,-3.6392,-3.6381,-3.6428,-3.6419,-3.6399,-3.6369,-3.6422,-3.6442,-3.645,-3.6339,-3.6338,-3.6338,-3.6337,0,0,-3.6344,-3.635,-3.6358,-3.6364,-3.6369,-3.6384,-3.6409,-3.6424,-3.6435,-3.6442,-3.6464,-3.6487,-3.647,-3.6476,-3.6465,-3.6485,-3.6536,-3.6463,-3.6463,-3.6477,-3.659,-3.6605,-3.6615,-3.6525,-3.6526,-3.6527,-3.659,0,-3.6401,-3.6446,-3.6435,-3.6479,-3.6498,-3.6476,-3.6499,-3.6504,-3.6502,-3.6517,-3.6514,-3.6531,-3.6506,-3.6511,-3.6529,-3.6526,-3.6559,-3.6521,-3.6544,-3.6545,-3.6545,-3.6626,-3.6641,-3.67,-3.6598,-3.6599,-3.66,0,-3.6473,-3.6486,-3.6532,-3.6537,-3.6545,-3.6565,-3.6579,-3.6594,-3.66,-3.6597,-3.6606,-3.6592,-3.6617,-3.6587,-3.6622,-3.6597,-3.6606,-3.6606,-3.6608,-3.661,-3.6576,-3.6631,-3.6719,-3.6728,-3.6613,-3.6612,-3.6611,0,-3.6528,-3.6557,-3.6589,-3.6594,-3.66,-3.6615,-3.6618,-3.6623,-3.6633,-3.6645,-3.6652,-3.6666,-3.6674,-3.6685,-3.6676,-3.6654,-3.6713,-3.6681,-3.6712,-3.6712,-3.6725,-3.6724,-3.6817,-3.673,-3.673,-3.673,-3.6729,0,-3.6593,-3.6623,-3.6614,-3.6634,-3.6666,-3.6655,-3.6687,-3.6688,-3.6693,-3.6713,-3.6694,-3.6713,-3.6699,-3.6716,-3.6709,-3.674,-3.6743,-3.6742,-3.674,-3.6744,-3.6744,-3.675,-3.6746,-3.6732,-3.6731,-3.6731,-3.6731,0,-3.666,-3.6655,-3.6689,-3.6693,-3.6695,-3.6719,-3.6722,-3.674,-3.6737,-3.6763,-3.6768,-3.6762,-3.6783,-3.6774,-3.6795,-3.679,-3.6831,-3.6822,-3.6829,-3.6827,-3.6858,-3.6856,-3.6958,-3.6971,-3.6875,-3.6876,-3.6877,0,-3.6702,-3.6725,-3.6732,-3.6745,-3.675,-3.677,-3.6781,-3.6771,-3.6783,-3.6794,-3.6811,-3.683,-3.6845,-3.6878,-3.6875,-3.6892,-3.6884,-3.6919,-3.6886,-3.6891,-3.6886,-3.6885,-3.6888,-3.6925,-3.6927,-3.6927,-3.6928,0,-3.6778,-3.6775,-3.6792,-3.681,-3.6825,-3.6837,-3.6848,-3.6859,-3.685,-3.6865,-3.6886,-3.6897,-3.692,-3.6939,-3.6954,-3.6956,-3.6941,-3.6939,-3.6947,-3.6951,-3.6955,-3.6955,-3.6847,-3.6936,-3.6935,-3.6935,-3.6934,-3.6934,-3.6834,-3.6854,-3.6864,-3.6884,-3.6892,-3.6903,-3.6922,-3.6922,-3.694,-3.6959,-3.6951,-3.6976,-3.6984,-3.7003,-3.7008,-3.7027,-3.7014,-3.7025,-3.7028,-3.7031,-3.7036,-3.6952,-3.703,-3.7029,-3.7029,-3.7029,-3.7029,0,-3.691,-3.6916,-3.6935,-3.6953,-3.6969,-3.6955,-3.6967,-3.6982,-3.7004,-3.7014,-3.7029,-3.7054,-3.7074,-3.7074,-3.7092,-3.7107,-3.7101,-3.7112,-3.7111,-3.7113,-3.7046,-3.7038,-3.7118,-3.7118,-3.7118,-3.7118,-3.7118,-3.7117,-3.6952,-3.6986,-3.6985,-3.7023,-3.7028,-3.7053,-3.7062,-3.7072,-3.708,-3.711,-3.7126,-3.7127,-3.7133,-3.7152,-3.7169,-3.7169,-3.7176,-3.7191,-3.7188,-3.7126,-3.7117,-3.7109,-3.7101,-3.7192,-3.7193,-3.7253,-3.7253,-3.7254]}]]